Time,TemperatureF,DewpointF,PressureIn,WindDirection,WindDirectionDegrees,WindSpeedMPH,WindSpeedGustMPH,Humidity,HourlyPrecipIn,Conditions,Clouds,dailyrainin,SoftwareType,DateUTC
2013-07-28 00:02:00,65.7,64.5,30.70,South,189,5.0,10.0,96,0.00,RA,RA,0.00,WeatherDisplay:10.37,2013-07-28 04:02:00,
2013-07-28 00:07:00,65.7,64.5,30.70,SSW,194,5.0,7.0,96,0.00,RA,RA,0.00,WeatherDisplay:10.37,2013-07-28 04:07:00,
2013-07-28 00:12:00,65.6,64.4,30.70,SSW,200,3.0,7.0,96,0.00,CLR,CLR,0.00,WeatherDisplay:10.37,2013-07-28 04:12:00,
2013-07-28 00:17:00,65.5,64.3,30.70,South,178,3.0,7.0,96,0.00,CLR,CLR,0.00,WeatherDisplay:10.37,2013-07-28 04:17:00,
2013-07-28 00:22:00,65.4,64.2,30.70,SSE,160,3.0,6.0,96,0.00,CLR,CLR,0.00,WeatherDisplay:10.37,2013-07-28 04:22:00,
2013-07-28 00:27:00,65.3,64.4,30.70,SSE,161,5.0,7.0,97,0.00,CLR,CLR,0.00,WeatherDisplay:10.37,2013-07-28 04:27:00,
2013-07-28 00:32:00,65.2,64.3,30.70,SSE,165,1.0,5.0,97,0.00,CLR,CLR,0.00,WeatherDisplay:10.37,2013-07-28 04:32:00,
2013-07-28 00:37:00,65.1,64.2,30.70,SSE,165,1.0,6.0,97,0.00,CLR,CLR,0.00,WeatherDisplay:10.37,2013-07-28 04:37:00,
2013-07-28 00:42:00,65.0,63.8,30.70,SSE,165,1.0,4.0,96,0.00,CLR,CLR,0.00,WeatherDisplay:10.37,2013-07-28 04:42:00,
2013-07-28 00:47:00,64.9,63.7,30.70,SSE,165,0.0,1.0,96,0.00,CLR,CLR,0.00,WeatherDisplay:10.37,2013-07-28 04:47:00,
2013-07-28 00:52:00,64.7,63.6,30.70,SSE,165,0.0,1.0,96,0.00,CLR,CLR,0.00,WeatherDisplay:10.37,2013-07-28 04:52:00,
2013-07-28 00:57:00,64.5,63.7,30.70,SSE,165,1.0,4.0,97,0.00,CLR,CLR,0.00,WeatherDisplay:10.37,2013-07-28 04:57:00,
2013-07-28 01:02:00,64.4,63.5,30.70,SSE,165,0.0,2.0,97,0.00,CLR,CLR,0.00,WeatherDisplay:10.37,2013-07-28 05:02:00,
2013-07-28 01:07:00,64.3,63.4,30.70,SSE,165,0.0,0.0,97,0.00,CLR,CLR,0.00,WeatherDisplay:10.37,2013-07-28 05:07:00,
2013-07-28 01:12:00,64.1,63.2,30.70,SSE,165,0.0,1.0,97,0.00,CLR,CLR,0.00,WeatherDisplay:10.37,2013-07-28 05:12:00,
2013-07-28 01:17:00,64.0,63.1,30.70,SSE,165,0.0,0.0,97,0.00,CLR,CLR,0.00,WeatherDisplay:10.37,2013-07-28 05:17:00,
2013-07-28 01:22:00,63.8,62.9,30.70,SSE,165,0.0,0.0,97,0.00,CLR,CLR,0.00,WeatherDisplay:10.37,2013-07-28 05:22:00,
2013-07-28 01:27:00,63.6,62.7,30.70,SSE,165,0.0,1.0,97,0.00,CLR,CLR,0.00,WeatherDisplay:10.37,2013-07-28 05:27:00,
2013-07-28 01:32:00,63.3,62.4,30.70,SSE,165,0.0,2.0,97,0.00,CLR,CLR,0.00,WeatherDisplay:10.37,2013-07-28 05:32:00,
2013-07-28 01:37:00,63.1,62.2,30.70,SSE,165,0.0,0.0,97,0.00,CLR,CLR,0.00,WeatherDisplay:10.37,2013-07-28 05:37:00,
2013-07-28 01:42:00,63.0,62.1,30.70,SSE,165,0.0,0.0,97,0.00,CLR,CLR,0.00,WeatherDisplay:10.37,2013-07-28 05:42:00,
2013-07-28 01:47:00,63.0,62.1,30.70,SSE,165,0.0,0.0,97,0.00,CLR,CLR,0.00,WeatherDisplay:10.37,2013-07-28 05:47:00,
2013-07-28 01:52:00,63.0,62.1,30.70,SSE,165,0.0,0.0,97,0.00,CLR,CLR,0.00,WeatherDisplay:10.37,2013-07-28 05:52:00,
2013-07-28 01:57:00,63.1,62.3,30.70,SSE,165,0.0,0.0,97,0.00,CLR,CLR,0.00,WeatherDisplay:10.37,2013-07-28 05:57:00,
2013-07-28 02:02:00,63.2,62.3,30.69,SSE,165,0.0,0.0,97,0.00,CLR,CLR,0.00,WeatherDisplay:10.37,2013-07-28 06:02:00,
2013-07-28 02:07:00,63.1,62.2,30.69,SSE,165,0.0,0.0,97,0.01,RA,RA,0.01,WeatherDisplay:10.37,2013-07-28 06:07:00,
2013-07-28 02:12:00,63.1,62.2,30.69,SSE,165,0.0,0.0,97,0.00,RA,RA,0.01,WeatherDisplay:10.37,2013-07-28 06:12:00,
2013-07-28 02:17:00,63.0,62.1,30.69,SSE,165,0.0,0.0,97,0.00,CLR,CLR,0.01,WeatherDisplay:10.37,2013-07-28 06:17:00,
2013-07-28 02:22:00,63.0,62.1,30.70,SSE,165,0.0,0.0,97,0.00,CLR,CLR,0.01,WeatherDisplay:10.37,2013-07-28 06:22:00,
2013-07-28 02:27:00,63.0,62.1,30.70,SSE,165,0.0,1.0,97,0.00,CLR,CLR,0.01,WeatherDisplay:10.37,2013-07-28 06:27:00,
2013-07-28 02:32:00,62.9,62.0,30.70,SSE,165,0.0,0.0,97,0.00,CLR,CLR,0.01,WeatherDisplay:10.37,2013-07-28 06:32:00,
2013-07-28 02:37:00,62.8,61.9,30.71,SSE,165,0.0,0.0,97,0.00,CLR,CLR,0.01,WeatherDisplay:10.37,2013-07-28 06:37:00,
2013-07-28 02:47:00,62.9,62.3,30.71,SSE,165,0.0,1.0,98,0.00,CLR,CLR,0.01,WeatherDisplay:10.37,2013-07-28 06:47:00,
2013-07-28 02:52:00,62.9,62.3,30.71,SSE,165,0.0,1.0,98,0.00,CLR,CLR,0.01,WeatherDisplay:10.37,2013-07-28 06:52:00,
2013-07-28 02:57:00,62.9,62.3,30.71,SSE,165,0.0,0.0,98,0.00,CLR,CLR,0.01,WeatherDisplay:10.37,2013-07-28 06:57:00,
2013-07-28 03:02:00,62.9,62.3,30.71,SSE,165,0.0,0.0,98,0.00,CLR,CLR,0.01,WeatherDisplay:10.37,2013-07-28 07:02:00,
2013-07-28 03:07:00,62.9,62.3,30.72,SSE,165,0.0,0.0,98,0.00,CLR,CLR,0.01,WeatherDisplay:10.37,2013-07-28 07:07:00,
2013-07-28 03:12:00,62.8,62.2,30.72,SSE,165,0.0,0.0,98,0.00,CLR,CLR,0.01,WeatherDisplay:10.37,2013-07-28 07:12:00,
2013-07-28 03:17:00,62.8,62.2,30.72,SSE,165,0.0,0.0,98,0.00,CLR,CLR,0.01,WeatherDisplay:10.37,2013-07-28 07:17:00,
2013-07-28 03:22:00,62.7,62.1,30.72,SSE,165,0.0,0.0,98,0.00,CLR,CLR,0.01,WeatherDisplay:10.37,2013-07-28 07:22:00,
2013-07-28 03:27:00,62.7,62.1,30.72,SSE,165,0.0,0.0,98,0.00,CLR,CLR,0.01,WeatherDisplay:10.37,2013-07-28 07:27:00,
2013-07-28 03:32:00,62.7,62.1,30.72,SSE,165,0.0,0.0,98,0.00,CLR,CLR,0.01,WeatherDisplay:10.37,2013-07-28 07:32:00,
2013-07-28 03:37:00,62.6,61.7,30.72,SSE,165,0.0,0.0,97,0.00,CLR,CLR,0.01,WeatherDisplay:10.37,2013-07-28 07:37:00,
2013-07-28 03:47:00,62.4,61.5,30.73,SSE,165,0.0,0.0,97,0.00,CLR,CLR,0.01,WeatherDisplay:10.37,2013-07-28 07:47:00,
2013-07-28 03:52:00,62.3,61.4,30.73,SSE,165,0.0,0.0,97,0.00,CLR,CLR,0.01,WeatherDisplay:10.37,2013-07-28 07:52:00,
2013-07-28 03:57:00,62.2,61.3,30.73,SSE,165,0.0,0.0,97,0.00,CLR,CLR,0.01,WeatherDisplay:10.37,2013-07-28 07:57:00,
2013-07-28 04:02:00,62.2,61.3,30.73,SSE,165,0.0,0.0,97,0.00,CLR,CLR,0.01,WeatherDisplay:10.37,2013-07-28 08:02:00,
2013-07-28 04:07:00,62.1,61.5,30.73,SSE,165,0.0,0.0,98,0.00,CLR,CLR,0.01,WeatherDisplay:10.37,2013-07-28 08:07:00,
2013-07-28 04:12:00,62.0,61.1,30.73,SSE,165,0.0,0.0,97,0.00,CLR,CLR,0.01,WeatherDisplay:10.37,2013-07-28 08:12:00,
2013-07-28 04:17:00,61.8,60.9,30.73,SSE,165,0.0,0.0,97,0.00,CLR,CLR,0.01,WeatherDisplay:10.37,2013-07-28 08:17:00,
2013-07-28 04:22:00,61.6,60.7,30.73,SSE,165,0.0,0.0,97,0.00,CLR,CLR,0.01,WeatherDisplay:10.37,2013-07-28 08:22:00,
2013-07-28 04:27:00,61.3,60.5,30.73,SSE,165,0.0,0.0,97,0.00,CLR,CLR,0.01,WeatherDisplay:10.37,2013-07-28 08:27:00,
2013-07-28 04:37:00,61.0,60.2,30.73,SSE,165,0.0,0.0,97,0.00,CLR,CLR,0.01,WeatherDisplay:10.37,2013-07-28 08:37:00,
2013-07-28 04:42:00,60.9,60.0,30.73,SSE,165,0.0,0.0,97,0.00,CLR,CLR,0.01,WeatherDisplay:10.37,2013-07-28 08:42:00,
2013-07-28 04:47:00,60.9,60.0,30.73,SSE,165,0.0,0.0,97,0.00,CLR,CLR,0.01,WeatherDisplay:10.37,2013-07-28 08:47:00,
2013-07-28 04:52:00,60.9,60.3,30.73,SSE,165,0.0,0.0,98,0.00,CLR,CLR,0.01,WeatherDisplay:10.37,2013-07-28 08:52:00,
2013-07-28 05:02:00,60.8,60.3,30.73,SSE,165,0.0,0.0,98,0.00,CLR,CLR,0.01,WeatherDisplay:10.37,2013-07-28 09:02:00,
2013-07-28 05:07:00,60.8,60.2,30.73,SSE,165,0.0,0.0,98,0.00,CLR,CLR,0.01,WeatherDisplay:10.37,2013-07-28 09:07:00,
2013-07-28 05:12:00,60.7,59.8,30.73,SSE,165,0.0,0.0,97,0.00,CLR,CLR,0.01,WeatherDisplay:10.37,2013-07-28 09:12:00,
2013-07-28 05:17:00,60.7,59.8,30.73,SSE,165,0.0,0.0,97,0.00,CLR,CLR,0.01,WeatherDisplay:10.37,2013-07-28 09:17:00,
2013-07-28 05:22:00,60.5,59.7,30.73,SSE,165,0.0,0.0,97,0.00,CLR,CLR,0.01,WeatherDisplay:10.37,2013-07-28 09:22:00,
2013-07-28 05:27:00,60.4,59.5,30.73,SSE,165,0.0,0.0,97,0.00,CLR,CLR,0.01,WeatherDisplay:10.37,2013-07-28 09:27:00,
2013-07-28 05:32:00,60.2,59.3,30.73,SSE,165,0.0,0.0,97,0.00,CLR,CLR,0.01,WeatherDisplay:10.37,2013-07-28 09:32:00,
2013-07-28 05:37:00,60.0,59.1,30.73,SSE,165,0.0,0.0,97,0.00,CLR,CLR,0.01,WeatherDisplay:10.37,2013-07-28 09:37:00,
2013-07-28 05:42:00,59.7,58.8,30.74,SSE,165,0.0,0.0,97,0.00,CLR,CLR,0.01,WeatherDisplay:10.37,2013-07-28 09:42:00,
2013-07-28 05:47:00,59.5,58.7,30.74,SSE,165,0.0,0.0,97,0.00,CLR,CLR,0.01,WeatherDisplay:10.37,2013-07-28 09:47:00,
2013-07-28 05:52:00,59.4,58.5,30.74,SSE,165,0.0,0.0,97,0.00,CLR,CLR,0.01,WeatherDisplay:10.37,2013-07-28 09:52:00,
2013-07-28 05:57:00,59.3,58.4,30.74,SSE,165,0.0,0.0,97,0.00,CLR,CLR,0.01,WeatherDisplay:10.37,2013-07-28 09:57:00,
2013-07-28 06:02:00,59.1,58.3,30.75,SSE,165,0.0,0.0,97,0.00,CLR,CLR,0.01,WeatherDisplay:10.37,2013-07-28 10:02:00,
2013-07-28 06:07:00,59.0,58.4,30.75,SSE,165,0.0,0.0,98,0.00,CLR,CLR,0.01,WeatherDisplay:10.37,2013-07-28 10:07:00,
2013-07-28 06:12:00,59.0,58.4,30.75,SSE,165,0.0,0.0,98,0.00,CLR,CLR,0.01,WeatherDisplay:10.37,2013-07-28 10:12:00,
2013-07-28 06:17:00,58.9,58.3,30.75,SSE,165,0.0,0.0,98,0.00,CLR,CLR,0.01,WeatherDisplay:10.37,2013-07-28 10:17:00,
2013-07-28 06:22:00,58.9,58.3,30.75,SSE,165,0.0,0.0,98,0.00,CLR,CLR,0.01,WeatherDisplay:10.37,2013-07-28 10:22:00,
2013-07-28 06:27:00,58.9,58.3,30.75,SSE,165,0.0,0.0,98,0.00,CLR,CLR,0.01,WeatherDisplay:10.37,2013-07-28 10:27:00,
2013-07-28 06:32:00,58.8,58.2,30.75,SSE,165,0.0,0.0,98,0.00,CLR,CLR,0.01,WeatherDisplay:10.37,2013-07-28 10:32:00,
2013-07-28 06:37:00,58.7,58.1,30.75,SSE,165,0.0,0.0,98,0.00,CLR,CLR,0.01,WeatherDisplay:10.37,2013-07-28 10:37:00,
2013-07-28 06:42:00,58.7,58.1,30.76,SSE,165,0.0,0.0,98,0.00,CLR,CLR,0.01,WeatherDisplay:10.37,2013-07-28 10:42:00,
2013-07-28 06:47:00,58.8,58.3,30.76,SSE,165,0.0,1.0,98,0.00,CLR,CLR,0.01,WeatherDisplay:10.37,2013-07-28 10:47:00,
2013-07-28 06:52:00,59.0,58.5,30.76,SSE,165,0.0,0.0,98,0.00,CLR,CLR,0.01,WeatherDisplay:10.37,2013-07-28 10:52:00,
2013-07-28 06:57:00,59.2,58.6,30.76,SSE,165,0.0,0.0,98,0.00,CLR,CLR,0.01,WeatherDisplay:10.37,2013-07-28 10:57:00,
2013-07-28 07:02:00,59.2,58.6,30.76,SSE,165,0.0,0.0,98,0.00,CLR,CLR,0.01,WeatherDisplay:10.37,2013-07-28 11:02:00,
2013-07-28 07:07:00,59.3,58.7,30.76,SSE,165,0.0,0.0,98,0.00,CLR,CLR,0.01,WeatherDisplay:10.37,2013-07-28 11:07:00,
2013-07-28 07:12:00,59.4,58.8,30.76,SSE,165,1.0,4.0,98,0.00,CLR,CLR,0.01,WeatherDisplay:10.37,2013-07-28 11:12:00,
2013-07-28 07:17:00,59.3,58.8,30.77,SSE,165,0.0,2.0,98,0.00,CLR,CLR,0.01,WeatherDisplay:10.37,2013-07-28 11:17:00,
2013-07-28 07:22:00,59.3,58.7,30.77,SSE,165,0.0,4.0,98,0.00,CLR,CLR,0.01,WeatherDisplay:10.37,2013-07-28 11:22:00,
2013-07-28 07:27:00,59.1,58.5,30.77,SSE,165,0.0,3.0,98,0.00,CLR,CLR,0.01,WeatherDisplay:10.37,2013-07-28 11:27:00,
2013-07-28 07:32:00,59.1,58.5,30.77,SSE,165,0.0,4.0,98,0.00,CLR,CLR,0.01,WeatherDisplay:10.37,2013-07-28 11:32:00,
2013-07-28 07:37:00,59.2,58.6,30.77,SSE,165,1.0,4.0,98,0.00,CLR,CLR,0.01,WeatherDisplay:10.37,2013-07-28 11:37:00,
2013-07-28 07:42:00,59.2,58.4,30.77,SSE,165,0.0,4.0,97,0.00,CLR,CLR,0.01,WeatherDisplay:10.37,2013-07-28 11:42:00,
2013-07-28 07:47:00,59.2,58.3,30.77,SSE,165,0.0,4.0,97,0.00,CLR,CLR,0.01,WeatherDisplay:10.37,2013-07-28 11:47:00,
2013-07-28 07:52:00,59.2,58.3,30.77,SSE,165,0.0,4.0,97,0.00,CLR,CLR,0.01,WeatherDisplay:10.37,2013-07-28 11:52:00,
2013-07-28 07:57:00,59.3,58.4,30.77,SSE,165,1.0,4.0,97,0.00,CLR,CLR,0.01,WeatherDisplay:10.37,2013-07-28 11:57:00,
2013-07-28 08:02:00,59.5,58.6,30.77,South,173,2.0,5.0,97,0.00,CLR,CLR,0.01,WeatherDisplay:10.37,2013-07-28 12:02:00,
2013-07-28 08:07:00,59.9,59.1,30.77,SSW,205,0.0,5.0,97,0.00,CLR,CLR,0.01,WeatherDisplay:10.37,2013-07-28 12:07:00,
2013-07-28 08:12:00,60.3,59.4,30.78,SSW,212,3.0,5.0,97,0.00,CLR,CLR,0.01,WeatherDisplay:10.37,2013-07-28 12:12:00,
2013-07-28 08:17:00,60.3,58.9,30.78,SSW,206,5.0,8.0,95,0.00,CLR,CLR,0.01,WeatherDisplay:10.37,2013-07-28 12:17:00,
2013-07-28 08:22:00,60.6,58.9,30.78,SSW,204,3.0,9.0,94,0.00,CLR,CLR,0.01,WeatherDisplay:10.37,2013-07-28 12:22:00,
2013-07-28 08:27:00,60.8,58.5,30.78,SW,214,2.0,8.0,92,0.00,CLR,CLR,0.01,WeatherDisplay:10.37,2013-07-28 12:27:00,
2013-07-28 08:32:00,61.0,58.7,30.78,SW,223,3.0,6.0,92,0.00,CLR,CLR,0.01,WeatherDisplay:10.37,2013-07-28 12:32:00,
2013-07-28 08:37:00,61.2,58.9,30.78,SW,227,0.0,5.0,92,0.00,CLR,CLR,0.01,WeatherDisplay:10.37,2013-07-28 12:37:00,
2013-07-28 08:42:00,61.5,58.8,30.78,SW,227,5.0,8.0,91,0.00,CLR,CLR,0.01,WeatherDisplay:10.37,2013-07-28 12:42:00,
2013-07-28 08:47:00,61.5,58.5,30.78,SW,231,5.0,6.0,90,0.00,CLR,CLR,0.01,WeatherDisplay:10.37,2013-07-28 12:47:00,
2013-07-28 08:52:00,61.5,58.2,30.78,SW,222,5.0,8.0,89,0.00,CLR,CLR,0.01,WeatherDisplay:10.37,2013-07-28 12:52:00,
2013-07-28 08:57:00,61.5,58.3,30.78,SSW,209,6.0,7.0,89,0.00,CLR,CLR,0.01,WeatherDisplay:10.37,2013-07-28 12:57:00,
2013-07-28 09:02:00,61.8,58.5,30.78,SSW,210,1.0,8.0,89,0.00,CLR,CLR,0.01,WeatherDisplay:10.37,2013-07-28 13:02:00,
2013-07-28 09:07:00,61.9,58.3,30.78,SW,228,1.0,6.0,88,0.00,CLR,CLR,0.01,WeatherDisplay:10.37,2013-07-28 13:07:00,
2013-07-28 09:12:00,62.0,58.4,30.79,SW,232,2.0,8.0,88,0.00,CLR,CLR,0.01,WeatherDisplay:10.37,2013-07-28 13:12:00,
2013-07-28 09:17:00,62.2,58.9,30.79,SW,222,3.0,6.0,89,0.00,CLR,CLR,0.01,WeatherDisplay:10.37,2013-07-28 13:17:00,
2013-07-28 09:22:00,62.5,58.6,30.79,SSW,198,5.0,8.0,87,0.00,CLR,CLR,0.01,WeatherDisplay:10.37,2013-07-28 13:22:00,
2013-07-28 09:27:00,62.6,56.3,30.79,SW,219,6.0,10.0,80,0.00,CLR,CLR,0.01,WeatherDisplay:10.37,2013-07-28 13:27:00,
2013-07-28 09:32:00,62.8,55.5,30.79,WSW,243,6.0,9.0,77,0.00,CLR,CLR,0.01,WeatherDisplay:10.37,2013-07-28 13:32:00,
2013-07-28 09:37:00,63.0,55.7,30.79,WSW,250,6.0,9.0,77,0.00,CLR,CLR,0.01,WeatherDisplay:10.37,2013-07-28 13:37:00,
2013-07-28 09:42:00,63.3,56.3,30.79,WSW,246,3.0,9.0,78,0.00,CLR,CLR,0.01,WeatherDisplay:10.37,2013-07-28 13:42:00,
2013-07-28 09:47:00,63.6,56.6,30.79,WSW,240,3.0,8.0,78,0.00,CLR,CLR,0.01,WeatherDisplay:10.37,2013-07-28 13:47:00,
2013-07-28 09:57:00,64.2,56.1,30.79,WSW,242,5.0,8.0,75,0.00,CLR,CLR,0.01,WeatherDisplay:10.37,2013-07-28 13:57:00,
2013-07-28 10:02:00,64.7,56.2,30.79,SSW,208,7.0,10.0,74,0.00,CLR,CLR,0.01,WeatherDisplay:10.37,2013-07-28 14:02:00,
2013-07-28 10:07:00,65.0,54.2,30.79,SSW,213,6.0,12.0,68,0.00,CLR,CLR,0.01,WeatherDisplay:10.37,2013-07-28 14:07:00,
2013-07-28 10:17:00,65.8,55.7,30.78,SSW,212,7.0,9.0,70,0.00,CLR,CLR,0.01,WeatherDisplay:10.37,2013-07-28 14:17:00,
2013-07-28 10:22:00,65.9,53.4,30.79,SSW,209,8.0,13.0,64,0.00,CLR,CLR,0.01,WeatherDisplay:10.37,2013-07-28 14:22:00,
2013-07-28 10:27:00,66.0,54.7,30.78,SW,215,6.0,10.0,67,0.00,CLR,CLR,0.01,WeatherDisplay:10.37,2013-07-28 14:27:00,
2013-07-28 10:32:00,66.2,53.2,30.79,SW,217,5.0,10.0,63,0.00,CLR,CLR,0.01,WeatherDisplay:10.37,2013-07-28 14:32:00,
2013-07-28 10:37:00,66.4,53.8,30.79,SW,214,7.0,12.0,64,0.00,CLR,CLR,0.01,WeatherDisplay:10.37,2013-07-28 14:37:00,
2013-07-28 10:42:00,66.7,54.1,30.79,SW,223,6.0,9.0,64,0.00,CLR,CLR,0.01,WeatherDisplay:10.37,2013-07-28 14:42:00,
2013-07-28 10:52:00,67.5,55.3,30.79,WSW,252,5.0,10.0,65,0.00,CLR,CLR,0.01,WeatherDisplay:10.37,2013-07-28 14:52:00,
2013-07-28 10:57:00,67.7,55.1,30.79,WSW,254,3.0,10.0,64,0.00,CLR,CLR,0.01,WeatherDisplay:10.37,2013-07-28 14:57:00,
2013-07-28 11:02:00,67.8,54.3,30.79,WSW,257,7.0,10.0,62,0.00,CLR,CLR,0.01,WeatherDisplay:10.37,2013-07-28 15:02:00,
2013-07-28 11:07:00,67.6,52.8,30.79,WSW,249,8.0,14.0,59,0.00,CLR,CLR,0.01,WeatherDisplay:10.37,2013-07-28 15:07:00,
2013-07-28 11:12:00,67.5,53.1,30.79,WSW,245,6.0,10.0,60,0.00,CLR,CLR,0.01,WeatherDisplay:10.37,2013-07-28 15:12:00,
2013-07-28 11:17:00,67.3,52.9,30.79,SW,235,6.0,14.0,60,0.00,CLR,CLR,0.01,WeatherDisplay:10.37,2013-07-28 15:17:00,
2013-07-28 11:27:00,68.1,55.0,30.79,WSW,247,5.0,9.0,63,0.00,CLR,CLR,0.01,WeatherDisplay:10.37,2013-07-28 15:27:00,
2013-07-28 11:32:00,68.5,57.5,30.79,WSW,239,6.0,12.0,68,0.00,CLR,CLR,0.01,WeatherDisplay:10.37,2013-07-28 15:32:00,
2013-07-28 11:37:00,68.3,54.3,30.79,SW,227,7.0,14.0,61,0.00,CLR,CLR,0.01,WeatherDisplay:10.37,2013-07-28 15:37:00,
2013-07-28 11:47:00,67.9,54.8,30.79,WSW,244,6.0,10.0,63,0.00,CLR,CLR,0.01,WeatherDisplay:10.37,2013-07-28 15:47:00,
2013-07-28 11:52:00,67.8,53.9,30.79,WSW,242,7.0,15.0,61,0.00,CLR,CLR,0.01,WeatherDisplay:10.37,2013-07-28 15:52:00,
2013-07-28 11:57:00,67.9,54.0,30.79,SW,220,9.0,12.0,61,0.00,CLR,CLR,0.01,WeatherDisplay:10.37,2013-07-28 15:57:00,
2013-07-28 12:02:00,67.8,53.4,30.79,SSW,209,8.0,16.0,60,0.00,CLR,CLR,0.01,WeatherDisplay:10.37,2013-07-28 16:02:00,
2013-07-28 12:07:00,68.1,54.1,30.79,SSW,208,10.0,16.0,61,0.00,CLR,CLR,0.01,WeatherDisplay:10.37,2013-07-28 16:07:00,
2013-07-28 12:12:00,67.8,54.3,30.79,SW,220,6.0,15.0,62,0.00,CLR,CLR,0.01,WeatherDisplay:10.37,2013-07-28 16:12:00,
2013-07-28 12:17:00,68.3,53.8,30.79,SW,219,9.0,13.0,60,0.00,CLR,CLR,0.01,WeatherDisplay:10.37,2013-07-28 16:17:00,
2013-07-28 12:22:00,68.4,53.0,30.79,SSW,203,8.0,14.0,58,0.00,CLR,CLR,0.01,WeatherDisplay:10.37,2013-07-28 16:22:00,
2013-07-28 12:27:00,68.0,54.5,30.79,SW,214,3.0,12.0,62,0.00,CLR,CLR,0.01,WeatherDisplay:10.37,2013-07-28 16:27:00,
2013-07-28 12:32:00,67.6,53.2,30.79,SW,227,7.0,12.0,60,0.00,CLR,CLR,0.01,WeatherDisplay:10.37,2013-07-28 16:32:00,
2013-07-28 12:37:00,67.2,52.8,30.79,SW,228,6.0,12.0,60,0.00,CLR,CLR,0.01,WeatherDisplay:10.37,2013-07-28 16:37:00,
2013-07-28 12:47:00,68.6,52.7,30.79,SW,232,8.0,12.0,57,0.00,CLR,CLR,0.01,WeatherDisplay:10.37,2013-07-28 16:47:00,
2013-07-28 12:52:00,68.7,53.3,30.79,SW,226,7.0,11.0,58,0.00,CLR,CLR,0.01,WeatherDisplay:10.37,2013-07-28 16:52:00,
2013-07-28 13:02:00,68.0,54.0,30.80,SW,221,5.0,12.0,61,0.00,CLR,CLR,0.01,WeatherDisplay:10.37,2013-07-28 17:02:00,
2013-07-28 13:07:00,68.7,53.8,30.79,SW,214,7.0,12.0,59,0.00,CLR,CLR,0.01,WeatherDisplay:10.37,2013-07-28 17:07:00,
2013-07-28 13:12:00,69.0,53.6,30.79,SSW,200,10.0,15.0,58,0.00,CLR,CLR,0.01,WeatherDisplay:10.37,2013-07-28 17:12:00,
2013-07-28 13:17:00,68.8,53.4,30.79,SSW,196,6.0,13.0,58,0.00,CLR,CLR,0.01,WeatherDisplay:10.37,2013-07-28 17:17:00,
2013-07-28 13:27:00,68.6,53.2,30.79,SW,232,7.0,13.0,58,0.00,CLR,CLR,0.01,WeatherDisplay:10.37,2013-07-28 17:27:00,
2013-07-28 13:37:00,68.6,54.6,30.79,WSW,241,6.0,12.0,61,0.00,CLR,CLR,0.01,WeatherDisplay:10.37,2013-07-28 17:37:00,
2013-07-28 13:42:00,68.6,54.2,30.79,WSW,241,6.0,12.0,60,0.00,CLR,CLR,0.01,WeatherDisplay:10.37,2013-07-28 17:42:00,
2013-07-28 13:47:00,68.5,55.0,30.79,SW,218,7.0,12.0,62,0.00,CLR,CLR,0.01,WeatherDisplay:10.37,2013-07-28 17:47:00,
2013-07-28 13:52:00,68.8,53.9,30.79,SSW,207,6.0,10.0,59,0.00,CLR,CLR,0.01,WeatherDisplay:10.37,2013-07-28 17:52:00,
2013-07-28 13:57:00,69.0,55.0,30.79,SW,215,7.0,13.0,61,0.00,CLR,CLR,0.01,WeatherDisplay:10.37,2013-07-28 17:57:00,
2013-07-28 14:02:00,68.8,53.9,30.79,SSW,209,10.0,16.0,59,0.00,CLR,CLR,0.01,WeatherDisplay:10.37,2013-07-28 18:02:00,
2013-07-28 14:07:00,68.7,53.8,30.79,SSW,212,8.0,16.0,59,0.00,CLR,CLR,0.01,WeatherDisplay:10.37,2013-07-28 18:07:00,
2013-07-28 14:12:00,68.7,54.7,30.79,SW,219,7.0,15.0,61,0.00,CLR,CLR,0.01,WeatherDisplay:10.37,2013-07-28 18:12:00,
2013-07-28 14:17:00,68.9,54.9,30.79,SSW,213,9.0,14.0,61,0.00,CLR,CLR,0.01,WeatherDisplay:10.37,2013-07-28 18:17:00,
2013-07-28 14:22:00,68.8,53.9,30.79,SSW,208,8.0,13.0,59,0.00,CLR,CLR,0.01,WeatherDisplay:10.37,2013-07-28 18:22:00,
2013-07-28 14:27:00,68.8,53.9,30.80,SW,214,8.0,12.0,59,0.00,CLR,CLR,0.01,WeatherDisplay:10.37,2013-07-28 18:27:00,
2013-07-28 14:32:00,68.6,53.7,30.79,SSW,210,8.0,15.0,59,0.00,CLR,CLR,0.01,WeatherDisplay:10.37,2013-07-28 18:32:00,
2013-07-28 14:37:00,68.6,54.6,30.79,SSW,211,8.0,13.0,61,0.00,CLR,CLR,0.01,WeatherDisplay:10.37,2013-07-28 18:37:00,
2013-07-28 14:42:00,68.9,54.4,30.79,SW,217,9.0,14.0,60,0.00,CLR,CLR,0.01,WeatherDisplay:10.37,2013-07-28 18:42:00,
2013-07-28 14:47:00,69.0,54.5,30.79,SSW,212,7.0,13.0,60,0.00,CLR,CLR,0.01,WeatherDisplay:10.37,2013-07-28 18:47:00,
2013-07-28 14:52:00,69.2,56.1,30.79,SW,217,7.0,12.0,63,0.00,CLR,CLR,0.01,WeatherDisplay:10.37,2013-07-28 18:52:00,
2013-07-28 14:57:00,69.4,55.8,30.79,SW,222,8.0,12.0,62,0.00,CLR,CLR,0.01,WeatherDisplay:10.37,2013-07-28 18:57:00,
2013-07-28 15:02:00,69.0,55.5,30.79,SW,218,7.0,12.0,62,0.00,CLR,CLR,0.01,WeatherDisplay:10.37,2013-07-28 19:02:00,
2013-07-28 15:07:00,68.8,56.6,30.79,SW,222,5.0,12.0,65,0.00,CLR,CLR,0.01,WeatherDisplay:10.37,2013-07-28 19:07:00,
2013-07-28 15:12:00,68.7,55.6,30.80,SW,218,6.0,10.0,63,0.00,CLR,CLR,0.01,WeatherDisplay:10.37,2013-07-28 19:12:00,
2013-07-28 15:17:00,68.7,55.2,30.80,SW,217,7.0,10.0,62,0.00,CLR,CLR,0.01,WeatherDisplay:10.37,2013-07-28 19:17:00,
2013-07-28 15:22:00,68.5,56.3,30.80,SSW,212,3.0,9.0,65,0.00,CLR,CLR,0.01,WeatherDisplay:10.37,2013-07-28 19:22:00,
2013-07-28 15:27:00,68.3,56.1,30.80,SSW,194,3.0,8.0,65,0.00,CLR,CLR,0.01,WeatherDisplay:10.37,2013-07-28 19:27:00,
2013-07-28 15:32:00,68.2,56.4,30.80,South,182,1.0,4.0,66,0.00,CLR,CLR,0.01,WeatherDisplay:10.37,2013-07-28 19:32:00,
2013-07-28 15:37:00,68.1,56.7,30.80,SSW,193,6.0,9.0,67,0.00,CLR,CLR,0.01,WeatherDisplay:10.37,2013-07-28 19:37:00,
2013-07-28 15:42:00,68.0,56.2,30.80,SSW,205,2.0,7.0,66,0.00,CLR,CLR,0.01,WeatherDisplay:10.37,2013-07-28 19:42:00,
2013-07-28 15:47:00,67.9,55.3,30.80,SW,216,6.0,8.0,64,0.00,CLR,CLR,0.01,WeatherDisplay:10.37,2013-07-28 19:47:00,
2013-07-28 15:52:00,67.6,55.4,30.80,SSW,213,3.0,10.0,65,0.00,CLR,CLR,0.01,WeatherDisplay:10.37,2013-07-28 19:52:00,
2013-07-28 15:57:00,67.5,56.1,30.80,SSW,206,3.0,6.0,67,0.00,CLR,CLR,0.01,WeatherDisplay:10.37,2013-07-28 19:57:00,
2013-07-28 16:07:00,67.7,56.4,30.80,SSW,201,5.0,10.0,67,0.00,CLR,CLR,0.01,WeatherDisplay:10.37,2013-07-28 20:07:00,
2013-07-28 16:12:00,67.8,55.2,30.80,SSW,206,9.0,15.0,64,0.00,CLR,CLR,0.01,WeatherDisplay:10.37,2013-07-28 20:12:00,
2013-07-28 16:17:00,67.9,56.5,30.80,SSW,198,3.0,9.0,67,0.00,CLR,CLR,0.01,WeatherDisplay:10.37,2013-07-28 20:17:00,
2013-07-28 16:27:00,67.7,56.3,30.80,SSW,205,6.0,13.0,67,0.00,CLR,CLR,0.01,WeatherDisplay:10.37,2013-07-28 20:27:00,
2013-07-28 16:32:00,67.6,55.4,30.80,SW,217,7.0,9.0,65,0.00,CLR,CLR,0.01,WeatherDisplay:10.37,2013-07-28 20:32:00,
2013-07-28 16:37:00,67.5,55.7,30.80,SW,221,6.0,18.0,66,0.00,CLR,CLR,0.01,WeatherDisplay:10.37,2013-07-28 20:37:00,
2013-07-28 16:42:00,67.4,55.6,30.80,SW,217,6.0,9.0,66,0.00,CLR,CLR,0.01,WeatherDisplay:10.37,2013-07-28 20:42:00,
2013-07-28 16:47:00,67.1,56.2,30.80,SSW,203,3.0,12.0,68,0.00,CLR,CLR,0.01,WeatherDisplay:10.37,2013-07-28 20:47:00,
2013-07-28 16:52:00,66.8,56.3,30.81,SSW,200,3.0,8.0,69,0.00,CLR,CLR,0.01,WeatherDisplay:10.37,2013-07-28 20:52:00,
2013-07-28 16:57:00,66.5,56.0,30.80,SSW,195,2.0,8.0,69,0.00,CLR,CLR,0.01,WeatherDisplay:10.37,2013-07-28 20:57:00,
2013-07-28 17:02:00,66.2,56.2,30.81,SSW,198,3.0,8.0,70,0.00,CLR,CLR,0.01,WeatherDisplay:10.37,2013-07-28 21:02:00,
2013-07-28 17:07:00,66.1,56.4,30.81,SSW,208,1.0,5.0,71,0.00,CLR,CLR,0.01,WeatherDisplay:10.37,2013-07-28 21:07:00,
2013-07-28 17:17:00,66.1,56.4,30.81,SSW,192,3.0,6.0,71,0.00,CLR,CLR,0.01,WeatherDisplay:10.37,2013-07-28 21:17:00,
2013-07-28 17:22:00,66.2,56.5,30.81,SSW,195,3.0,8.0,71,0.00,CLR,CLR,0.01,WeatherDisplay:10.37,2013-07-28 21:22:00,
2013-07-28 17:27:00,66.4,56.7,30.81,SSW,193,6.0,7.0,71,0.00,CLR,CLR,0.01,WeatherDisplay:10.37,2013-07-28 21:27:00,
2013-07-28 17:32:00,66.5,56.8,30.81,South,179,3.0,7.0,71,0.00,CLR,CLR,0.01,WeatherDisplay:10.37,2013-07-28 21:32:00,
2013-07-28 17:37:00,66.7,57.0,30.81,South,171,5.0,7.0,71,0.00,CLR,CLR,0.01,WeatherDisplay:10.37,2013-07-28 21:37:00,
2013-07-28 17:42:00,66.9,56.4,30.81,South,174,5.0,7.0,69,0.00,CLR,CLR,0.01,WeatherDisplay:10.37,2013-07-28 21:42:00,
2013-07-28 17:47:00,67.1,57.0,30.81,South,171,3.0,6.0,70,0.00,CLR,CLR,0.01,WeatherDisplay:10.37,2013-07-28 21:47:00,
2013-07-28 17:52:00,67.2,57.1,30.80,SSE,165,6.0,8.0,70,0.00,CLR,CLR,0.01,WeatherDisplay:10.37,2013-07-28 21:52:00,
2013-07-28 17:57:00,67.3,57.2,30.80,SSE,166,6.0,8.0,70,0.00,CLR,CLR,0.01,WeatherDisplay:10.37,2013-07-28 21:57:00,
2013-07-28 18:02:00,67.5,57.4,30.80,South,174,5.0,8.0,70,0.00,CLR,CLR,0.01,WeatherDisplay:10.37,2013-07-28 22:02:00,
2013-07-28 18:07:00,67.9,58.1,30.80,South,172,3.0,7.0,71,0.00,CLR,CLR,0.01,WeatherDisplay:10.37,2013-07-28 22:07:00,
2013-07-28 18:12:00,68.8,58.6,30.80,South,173,3.0,8.0,70,0.00,CLR,CLR,0.01,WeatherDisplay:10.37,2013-07-28 22:12:00,
2013-07-28 18:17:00,69.3,58.7,30.80,South,169,6.0,8.0,69,0.00,CLR,CLR,0.01,WeatherDisplay:10.37,2013-07-28 22:17:00,
2013-07-28 18:22:00,68.9,57.9,30.80,South,178,6.0,9.0,68,0.00,CLR,CLR,0.01,WeatherDisplay:10.37,2013-07-28 22:22:00,
2013-07-28 18:27:00,68.4,57.0,30.80,SSW,198,5.0,7.0,67,0.00,CLR,CLR,0.01,WeatherDisplay:10.37,2013-07-28 22:27:00,
2013-07-28 18:32:00,68.7,56.9,30.80,SSW,203,3.0,6.0,66,0.00,CLR,CLR,0.01,WeatherDisplay:10.37,2013-07-28 22:32:00,
2013-07-28 18:42:00,69.0,55.5,30.80,SW,218,7.0,12.0,62,0.00,CLR,CLR,0.01,WeatherDisplay:10.37,2013-07-28 22:42:00,
2013-07-28 18:47:00,69.1,54.2,30.80,SW,230,8.0,13.0,59,0.00,CLR,CLR,0.01,WeatherDisplay:10.37,2013-07-28 22:47:00,
2013-07-28 18:52:00,68.7,54.3,30.80,SW,228,7.0,10.0,60,0.00,CLR,CLR,0.01,WeatherDisplay:10.37,2013-07-28 22:52:00,
2013-07-28 18:57:00,68.9,54.0,30.80,SW,230,5.0,8.0,59,0.00,CLR,CLR,0.01,WeatherDisplay:10.37,2013-07-28 22:57:00,
2013-07-28 19:02:00,69.3,54.8,30.81,SW,233,2.0,7.0,60,0.00,CLR,CLR,0.01,WeatherDisplay:10.37,2013-07-28 23:02:00,
2013-07-28 19:07:00,69.5,55.0,30.81,WSW,237,3.0,9.0,60,0.00,CLR,CLR,0.01,WeatherDisplay:10.37,2013-07-28 23:07:00,
2013-07-28 19:12:00,69.5,54.5,30.81,SW,231,5.0,9.0,59,0.00,CLR,CLR,0.01,WeatherDisplay:10.37,2013-07-28 23:12:00,
2013-07-28 19:17:00,69.2,54.2,30.82,SW,217,8.0,14.0,59,0.00,CLR,CLR,0.01,WeatherDisplay:10.37,2013-07-28 23:17:00,
2013-07-28 19:22:00,68.7,55.2,30.82,SW,223,5.0,9.0,62,0.00,CLR,CLR,0.01,WeatherDisplay:10.37,2013-07-28 23:22:00,
2013-07-28 19:27:00,68.4,54.5,30.82,SW,226,6.0,9.0,61,0.00,CLR,CLR,0.01,WeatherDisplay:10.37,2013-07-28 23:27:00,
2013-07-28 19:32:00,67.9,55.2,30.83,SW,214,2.0,6.0,64,0.00,CLR,CLR,0.01,WeatherDisplay:10.37,2013-07-28 23:32:00,
2013-07-28 19:37:00,67.5,55.3,30.83,SSW,212,1.0,4.0,65,0.00,CLR,CLR,0.01,WeatherDisplay:10.37,2013-07-28 23:37:00,
2013-07-28 19:42:00,67.5,55.3,30.83,SSW,212,2.0,4.0,65,0.00,CLR,CLR,0.01,WeatherDisplay:10.37,2013-07-28 23:42:00,
2013-07-28 19:47:00,67.6,55.4,30.83,SW,214,2.0,5.0,65,0.00,CLR,CLR,0.01,WeatherDisplay:10.37,2013-07-28 23:47:00,
2013-07-28 19:52:00,67.5,55.3,30.83,SW,216,1.0,3.0,65,0.00,CLR,CLR,0.01,WeatherDisplay:10.37,2013-07-28 23:52:00,
2013-07-28 19:57:00,67.0,55.3,30.83,SW,224,3.0,7.0,66,0.00,CLR,CLR,0.01,WeatherDisplay:10.37,2013-07-28 23:57:00,
2013-07-28 20:02:00,66.5,55.6,30.83,SW,226,1.0,5.0,68,0.00,CLR,CLR,0.01,WeatherDisplay:10.37,2013-07-29 00:02:00,
2013-07-28 20:07:00,66.1,55.6,30.83,SW,223,1.0,6.0,69,0.00,CLR,CLR,0.01,WeatherDisplay:10.37,2013-07-29 00:07:00,
2013-07-28 20:12:00,65.6,56.0,30.84,SW,223,0.0,1.0,71,0.00,CLR,CLR,0.01,WeatherDisplay:10.37,2013-07-29 00:12:00,
2013-07-28 20:17:00,65.0,56.2,30.84,SSW,212,1.0,5.0,73,0.00,CLR,CLR,0.01,WeatherDisplay:10.37,2013-07-29 00:17:00,
2013-07-28 20:22:00,64.6,55.4,30.84,SSW,201,0.0,3.0,72,0.00,CLR,CLR,0.01,WeatherDisplay:10.37,2013-07-29 00:22:00,
2013-07-28 20:27:00,64.3,55.5,30.84,SSW,197,0.0,3.0,73,0.00,CLR,CLR,0.01,WeatherDisplay:10.37,2013-07-29 00:27:00,
2013-07-28 20:32:00,63.9,55.4,30.84,SSW,197,0.0,5.0,74,0.00,CLR,CLR,0.01,WeatherDisplay:10.37,2013-07-29 00:32:00,
2013-07-28 20:37:00,63.6,55.9,30.84,SSW,198,0.0,1.0,76,0.00,CLR,CLR,0.01,WeatherDisplay:10.37,2013-07-29 00:37:00,
2013-07-28 20:42:00,63.2,55.1,30.84,SSW,198,0.0,2.0,75,0.00,CLR,CLR,0.01,WeatherDisplay:10.37,2013-07-29 00:42:00,
2013-07-28 20:47:00,63.0,55.6,30.84,SSW,198,0.0,0.0,77,0.00,CLR,CLR,0.01,WeatherDisplay:10.37,2013-07-29 00:47:00,
2013-07-28 20:52:00,62.8,56.9,30.84,SSW,198,0.0,0.0,81,0.00,CLR,CLR,0.01,WeatherDisplay:10.37,2013-07-29 00:52:00,
2013-07-28 20:57:00,62.5,56.6,30.84,SSW,198,0.0,0.0,81,0.00,CLR,CLR,0.01,WeatherDisplay:10.37,2013-07-29 00:57:00,
2013-07-28 21:02:00,62.2,56.6,30.84,SSW,198,0.0,0.0,82,0.00,CLR,CLR,0.01,WeatherDisplay:10.37,2013-07-29 01:02:00,
2013-07-28 21:07:00,62.0,57.1,30.84,SSW,198,0.0,0.0,84,0.00,CLR,CLR,0.01,WeatherDisplay:10.37,2013-07-29 01:07:00,
2013-07-28 21:12:00,61.7,57.1,30.84,SSW,198,0.0,0.0,85,0.00,CLR,CLR,0.01,WeatherDisplay:10.37,2013-07-29 01:12:00,
2013-07-28 21:17:00,61.3,56.7,30.85,SSW,198,0.0,0.0,85,0.00,CLR,CLR,0.01,WeatherDisplay:10.37,2013-07-29 01:17:00,
2013-07-28 21:22:00,60.9,56.7,30.85,SSW,198,0.0,0.0,86,0.00,CLR,CLR,0.01,WeatherDisplay:10.37,2013-07-29 01:22:00,
2013-07-28 21:27:00,60.5,56.3,30.85,SSW,198,0.0,0.0,86,0.00,CLR,CLR,0.01,WeatherDisplay:10.37,2013-07-29 01:27:00,
2013-07-28 21:32:00,60.2,56.3,30.85,SSW,198,0.0,0.0,87,0.00,CLR,CLR,0.01,WeatherDisplay:10.37,2013-07-29 01:32:00,
2013-07-28 21:37:00,59.9,56.0,30.86,SSW,198,0.0,0.0,87,0.00,CLR,CLR,0.01,WeatherDisplay:10.37,2013-07-29 01:37:00,
2013-07-28 21:42:00,60.0,56.4,30.87,SSW,201,0.0,4.0,88,0.00,CLR,CLR,0.01,WeatherDisplay:10.37,2013-07-29 01:42:00,
2013-07-28 21:47:00,59.9,55.4,30.87,SSW,208,0.0,4.0,85,0.00,CLR,CLR,0.01,WeatherDisplay:10.37,2013-07-29 01:47:00,
2013-07-28 21:52:00,60.4,55.5,30.88,SW,218,0.0,4.0,84,0.00,CLR,CLR,0.01,WeatherDisplay:10.37,2013-07-29 01:52:00,
2013-07-28 22:02:00,61.1,56.6,30.88,WNW,295,3.0,6.0,85,0.01,RA,RA,0.02,WeatherDisplay:10.37,2013-07-29 02:02:00,
2013-07-28 22:12:00,60.7,56.8,30.87,North,352,0.0,2.0,87,0.00,,,0.02,WeatherDisplay:10.37,2013-07-29 02:12:00,
2013-07-28 22:17:00,60.5,56.9,30.87,North,350,0.0,0.0,88,0.00,CLR,CLR,0.02,WeatherDisplay:10.37,2013-07-29 02:17:00,
2013-07-28 22:32:00,59.7,57.1,30.87,NNE,29,0.0,2.0,91,0.00,CLR,CLR,0.02,WeatherDisplay:10.37,2013-07-29 02:32:00,
2013-07-28 22:37:00,59.5,56.9,30.87,ENE,68,0.0,3.0,91,0.00,CLR,CLR,0.02,WeatherDisplay:10.37,2013-07-29 02:37:00,
2013-07-28 22:42:00,59.5,57.2,30.87,ENE,76,0.0,2.0,92,0.00,CLR,CLR,0.02,WeatherDisplay:10.37,2013-07-29 02:42:00,
2013-07-28 22:52:00,59.3,57.0,30.87,East,80,0.0,5.0,92,0.00,CLR,CLR,0.02,WeatherDisplay:10.37,2013-07-29 02:52:00,
2013-07-28 22:57:00,59.3,56.7,30.87,SSE,159,2.0,6.0,91,0.00,CLR,CLR,0.02,WeatherDisplay:10.37,2013-07-29 02:57:00,
2013-07-28 23:02:00,59.4,56.8,30.86,SSE,161,5.0,6.0,91,0.00,CLR,CLR,0.02,WeatherDisplay:10.37,2013-07-29 03:02:00,
2013-07-28 23:07:00,59.5,56.6,30.86,SSE,163,5.0,6.0,90,0.00,CLR,CLR,0.02,WeatherDisplay:10.37,2013-07-29 03:07:00,
2013-07-28 23:17:00,59.7,56.8,30.87,SSE,165,3.0,6.0,90,0.00,CLR,CLR,0.02,WeatherDisplay:10.37,2013-07-29 03:17:00,
2013-07-28 23:22:00,59.8,56.9,30.87,South,173,3.0,9.0,90,0.00,CLR,CLR,0.02,WeatherDisplay:10.37,2013-07-29 03:22:00,
2013-07-28 23:27:00,59.9,57.0,30.86,South,179,5.0,9.0,90,0.00,CLR,CLR,0.02,WeatherDisplay:10.37,2013-07-29 03:27:00,
2013-07-28 23:32:00,59.9,57.0,30.86,South,177,3.0,9.0,90,0.00,CLR,CLR,0.02,WeatherDisplay:10.37,2013-07-29 03:32:00,
2013-07-28 23:42:00,59.8,56.9,30.86,South,172,2.0,7.0,90,0.00,CLR,CLR,0.02,WeatherDisplay:10.37,2013-07-29 03:42:00,
2013-07-28 23:47:00,59.7,56.8,30.86,South,174,7.0,9.0,90,0.00,CLR,CLR,0.02,WeatherDisplay:10.37,2013-07-29 03:47:00,
2013-07-28 23:52:00,59.7,56.8,30.86,South,179,2.0,7.0,90,0.00,CLR,CLR,0.02,WeatherDisplay:10.37,2013-07-29 03:52:00,
2013-07-28 23:57:00,59.6,56.7,30.86,South,182,0.0,5.0,90,0.00,CLR,CLR,0.02,WeatherDisplay:10.37,2013-07-29 03:57:00,